Погода в Стрые

Украина / Львовская область     49°15′29″N   23°50′34″E
темп.,
°C
ветер,
м/с
пор.,
м/с
влажн.,
%
обл.,
%
осадки,
мм/ч
давл.,
гПа
погр.,
м
16 октября, сб
сб1600:00+4юз33705 0.0 101925
03:00+4ююз33685 0.0 101831
06:00+7зюз2256100 0.0 101838
09:00+8зсз3862100 0.0 1019355
12:00+11сз566298 0.0 10201089
15:00+13сз454830 0.0 10191372
18:00+9ссз35625 0.0 102078
21:00+5зсз34856 0.0 102263
17 октября, вс
вс1700:00+4з22925 0.0 102319
03:00+3з11925 0.0 102310
06:00+2зюз11917 0.0 102310
09:00+4юз118660 0.0 102328
12:00+9с126299 0.0 1022741
15:00+12ссз235024 0.0 10201121
18:00+9ссв226499 0.0 102022
21:00+6юз1173100 0.0 102110
18 октября, пн
пн1800:00+6ююз2276100 0.0 102219
03:00+6юз2278100 0.0 102120
06:00+5зюз2283100 0.0 102124
09:00+7зюз2477100 0.0 102293
12:00+11зсз4658100 0.0 10221115
15:00+11зсз6757100 0.0 10221187
18:00+10зсз4863100 0.0 1022600
21:00+9з41071100 0.0 1023704
19 октября, вт
вт1900:00+9зсз51183100 0.4 1024908
03:00+8зсз51092100 1.6 1025701
06:00+8сз4793100 1.3 1026448
09:00+7ссв2390100 1.4 1028239
12:00+8ссз117391 0.0 1029509
15:00+9з127597 0.0 1028500
18:00+9ссз1181100 0.0 102720
21:00+8юв2284100 0.0 102729
20 октября, ср
ср2000:00+8ююв2485100 0.0 1027102
03:00+6ю2290100 0.0 102632
06:00+6ююв328764 0.0 102534
09:00+7ююв3681100 0.0 1023146
12:00+14юз6105052 0.0 1021854
15:00+15юз71246100 0.0 1019890
18:00+13ююз61353100 0.0 1018693
21:00+13ююз51352100 0.0 1016504